Location: Peebles
(55.6412°N, 3.1714°W)
Time: 01:47:39
(UTC+01:00)

deb r/b Ablestar - Pass Details

Date: 07 July 2022
Orbit: 859 x 1154 km, 67.2° (Epoch: 13 August)

Event Time Altitude Azimuth Distance (km) Brightness Sun altitude
Rises 22:44:42 0° 309° (NW) 3,986 ? -5.4°
Reaches altitude 10° 22:47:31 10° 315° (NW) 3,045 ? -5.6°
Maximum altitude 22:54:33 47° 28° (NNE) 1,491 ? -6.1°
Drops below altitude 10° 23:01:33 10° 102° (ESE) 3,035 ? -6.7°
Sets 23:04:21 0° 108° (ESE) 3,971 ? -6.9°
